Regional Weather Roundup
Issued by NWS

Home | Current Version | Previous Version | Text Only | Print | Product List | Glossary Off
Versions: 1 2 3 4 5 6 7 8 9 10 11 12 13 14 15 16 17 18 19 20 21 22 23 24 25 26 27 28 29 30 31 32 33 34 35 36 37 38 39 40 41 42 43 44 45 46 47 48 49 50

000
ASUS45 KBOU 201507
RWRCO

WEATHER ROUNDUP FOR COLORADO
NATIONAL WEATHER SERVICE DENVER/BOULDER CO
900 AM MDT MON APR 20 2015

NOTE: "FAIR" INDICATES FEW OR NO CLOUDS BELOW 12000 FEET WITH NO
SIGNIFICANT WEATHER AND/OR OBSTRUCTIONS TO VISIBILITY.

COZ001>005-013-030-031-201600-
...NORTHWEST COLORADO...

CITY           SKY/WX    TMP DP  RH WIND       PRES   REMARKS
CRAIG          CLOUDY    38  34  85 CALM      30.05S
HAYDEN         CLOUDY    34  30  86 CALM      30.05R
MEEKER         PTSUNNY   40  34  79 SW5       30.03F
MOUNT WERNER   NOT AVBL
STEAMBOAT SPGS CLOUDY    32  31  95 CALM      30.04S
WALDEN         CLOUDY    30  28  93 CALM      30.02F
$$

COZ006>008-011-201600-
...WEST CENTRAL VALLEYS...

CITY           SKY/WX    TMP DP  RH WIND       PRES   REMARKS
GRAND JUNCTION SUNNY     48  41  76 SE10      30.00S
MONTROSE       MOSUNNY   43  39  86 CALM      30.04F
EAGLE          MOSUNNY   37  36  93 CALM      30.06S
RIFLE          PTSUNNY   43  38  82 CALM      30.03S
DELTA          MOSUNNY   50  41  70 E6        30.03S
NUCLA          MOSUNNY   46  34  61 E3        30.04S
$$

COZ017>023-064>068-201600-
...SOUTHWEST COLORADO...

CITY           SKY/WX    TMP DP  RH WIND       PRES   REMARKS
DURANGO        SUNNY     46  23  40 NE3       30.02S
CORTEZ         SUNNY     47  32  56 E5        30.00F
PAGOSA SPRINGS SUNNY     44  26  48 CALM      30.04F
TELLURIDE      CLOUDY    37  32  82 CALM      30.09S
WOLF CREEK PAS PTSUNNY   27  21  80 S7G17     30.15R WCI  19
$$

COZ009-010-012-014-032>034-037-058>063-201600-
...CENTRAL COLORADO...

CITY           SKY/WX    TMP DP  RH WIND       PRES   REMARKS
ASPEN          PTSUNNY   36  29  75 CALM      30.03S
BUENA VISTA    MOSUNNY   32  27  82 CALM      30.03S
COPPER MTN     CLOUDY    25  19  80 W18G28    30.06S WCI  11
BERTHOUD PASS  CLOUDY    14   7  73 NW32G44   30.02S WCI  -7
COTTONWOOD PAS PTSUNNY   36  27  69 NE3       30.03F
GUNNISON       MOSUNNY   37  32  81 CALM      30.07F
KREMMLING      PTSUNNY   34  28  80 CALM      30.06S
LEADVILLE      CLOUDY    31  20  63 N8        30.03S WCI  23
SALIDA         MOSUNNY   38  30  73 CALM      30.10F
SUNLIGHT       FOG      N/A N/A N/A CALM      30.13S VSB 1/4
WILKERSON PASS PTSUNNY   23  21  93 NW10G28   30.05S FOG     WCI  12
$$

COZ069>075-201600-
...SAN LUIS VALLEY/SANGRE DE CRISTO MOUNTAINS...

CITY           SKY/WX    TMP DP  RH WIND       PRES   REMARKS
ALAMOSA        CLOUDY    41  27  57 SW6       30.03S
LA VETA PASS   PTSUNNY   32  28  86 S7G16     30.06R WCI  26
SAGUACHE       MOSUNNY   41  30  65 N5        30.04S
$$

COZ035-036-038>040-201600-
...NORTHERN COLORADO FRONT RANGE...

CITY           SKY/WX    TMP DP  RH WIND       PRES   REMARKS
DENVER INTL AP MOSUNNY   38  29  70 CALM      30.02F
DMNS CITY PARK   N/A     40  26  59 S6        30.01F
AURORA         MOSUNNY   37  28  68 S5        30.03F
FRONT RANGE AP MOSUNNY   37  32  81 CALM      30.03F
ERIE MUNI ARPT PTSUNNY   39  33  80 W3        30.02F
BOULDER MUN AP MOSUNNY   37  32  81 S5        30.02F
CENTENNIAL     MOSUNNY   36  26  67 SE9       30.02F
BROOMFIELD     PTSUNNY   37  30  75 SE8       30.02F
FORT COLLINS   PTSUNNY   37  34  87 S3        30.05S
LONGMONT       MOSUNNY   43  33  68 CALM      30.04F
$$

COZ041-046-047-076>085-087-088-201600-
...PIKES PEAK/PALMER DIVIDE AND SOUTHERN FOOTHILLS...

CITY           SKY/WX    TMP DP  RH WIND       PRES   REMARKS
COLO. SPRINGS  PTSUNNY   40  28  62 SE5       30.03F
A. F. ACADEMY  SUNNY     37  26  62 VRB5      30.01F
ELLICOTT       MOSUNNY  N/A N/A N/A S8        30.02F
FALCON         CLOUDY    35  27  72 CALM      30.03F
FORT CARSON    MOSUNNY   40  30  68 VRB2      30.02F
LIMON          PTSUNNY   37  28  70 VRB3      30.04F
MONUMENT HILL  PTSUNNY   32  27  80 CALM      30.01F
TRINIDAD       MOSUNNY   46  33  60 N7        30.00S
$$

COZ042>045-048>051-090-091-201600-
...NORTHEAST COLORADO...

CITY           SKY/WX    TMP DP  RH WIND       PRES   REMARKS
GREELEY ARPT   MOSUNNY   37  27  65 CALM      30.06S
AKRON          SUNNY     41  26  55 W10       30.02S
BURLINGTON     PTSUNNY   44  28  53 W12       30.03S
WRAY           SUNNY     47  24  39 NW10G17   30.02S
STERLING       SUNNY     43  30  61 W14       30.02F
HOLYOKE        SUNNY     46  27  46 NW10      30.01F
FORT MORGAN    CLOUDY    39  31  72 W8        30.04F
$$

COZ086-089-092>099-201600-
...SOUTHEAST COLORADO...

CITY           SKY/WX    TMP DP  RH WIND       PRES   REMARKS
PUEBLO         SUNNY     42  31  64 SW3       30.04S
LA JUNTA       CLOUDY    45  33  63 E6        30.04S
LAMAR          CLOUDY    44  35  70 CALM      30.03F
SPRINGFIELD      N/A     44  28  53 S6        30.05R
$$


USA.gov is the U.S. government's official web portal to all federal, state and local government web resources and services.